Location: Audinghen
(50.8518°N, 1.6129°E)
Time: 02:52:25
(UTC+00:00)

Cosmos 2219 - Pass Details

Date: 07 August 2020
Orbit: 834 x 860 km, 71.1° (Epoch: 25 September)

Event Time Altitude Azimuth Distance (km) Brightness Sun altitude
Exits shadow 02:27:04 22° 235° (SW) 1,740 4.3 -15.5°
Maximum altitude 02:30:34 55° 306° (NW) 999 3.5 -15.1°
Drops below altitude 10° 02:36:06 10° 24° (NNE) 2,456 6.9 -14.6°
Sets 02:38:36 0° 29° (NNE) 3,394 8.1 -14.3°
